Regional Weather Roundup
Issued by NWS

Home | Current Version | Previous Version | Text Only | Print | Product List | Glossary On
Versions: 1 2 3 4 5 6 7 8 9 10 11 12 13 14 15 16 17 18 19 20 21 22 23 24 25 26 27 28 29 30 31 32 33 34 35 36 37 38 39 40 41 42 43 44 45 46 47 48 49 50
000
ASUS45 KPSR 271310
RWRAZ

ARIZONA REGIONAL HOURLY WEATHER ROUNDUP
NATIONAL WEATHER SERVICE PHOENIX AZ
600 AM MST WED AUG 27 2014

NOTE: FAIR INDICATES FEW OR NO CLOUDS BELOW 12,000 FEET WITH NO
SIGNIFICANT WEATHER AND/OR OBSTRUCTIONS TO VISIBILITY.

AZZ001>003-036-271400-
NORTHWEST ARIZONA

CITY           SKY/WX    TMP DP  RH WIND       PRES   REMARKS
BULLHEAD CITY    N/A     81  59  47 CALM      29.96R
KINGMAN        CLEAR     67  58  72 SE7       30.12R
$$

AZZ004>008-015-016-018-271400-
NORTH CENTRAL ARIZONA

CITY           SKY/WX    TMP DP  RH WIND       PRES   REMARKS
GRAND CANYON   PTCLDY    48  46  93 CALM      30.35
WILLIAMS       PTCLDY    50  48  93 S6        30.42R
PRESCOTT       CLEAR     58  55  90 CALM      30.26R
FLAGSTAFF      FOG       51  50  96 CALM      30.38S VSB 3/4
PAYSON         DRIZZLE   63  55  77 NW9       30.30R
PAGE           CLEAR     59  49  69 SW3       30.24R
$$

AZZ009>014-017-271400-
NORTHEAST ARIZONA

CITY           SKY/WX    TMP DP  RH WIND       PRES   REMARKS
WINSLOW        LGT RAIN  58  56  93 N7        30.30F
SAINT JOHNS    PTCLDY    53  52  96 CALM      30.30R
SHOW LOW       CLOUDY    54  48  82 NW7       30.38R
$$

AZZ023-271400-
GREATER PHOENIX AREA

CITY           SKY/WX    TMP DP  RH WIND       PRES   REMARKS
PHOENIX        PTCLDY    84  60  44 E8        29.99R
BUCKEYE          N/A     82  66  57 E13       29.98S
GLENDALE       PTCLDY    82  64  54 N6        30.01
LUKE AFB       NOT AVBL
DEER VALLEY    PTCLDY    80  60  50 NE5       30.01R
SCOTTSDALE     PTCLDY    82  61  48 CALM      30.03R
MESA-FALCON    MOCLDY    81  57  44 N6        30.01
MESA-GATEWAY   PTCLDY    79  66  65 SE3       30.03R
CHANDLER       PTCLDY    79  64  61 NE7       30.00
$$

AZZ027-028-271400-
SOUTHWEST MARICOPA COUNTY AND PINAL COUNTY

CITY           SKY/WX    TMP DP  RH WIND       PRES   REMARKS
CASA GRANDE    CLEAR     75  64  69 CALM      30.02R
$$

AZZ503-504-507>509-271400-
SOUTHEAST ARIZONA

CITY           SKY/WX    TMP DP  RH WIND       PRES   REMARKS
TUCSON         CLEAR     73  66  78 SE5       30.11R
DAVIS-MONTHAN  CLEAR     72  65  79 E5        30.10R
RYAN FIELD       N/A     73  66  78 CALM      30.10
NOGALES        PTCLDY    65  62  90 NE3       30.17R
SIERRA VISTA   MOCLDY    64  61  88 CALM      30.22R
DOUGLAS        FOG       62  61  96 NW6       30.19R VSB 1/4
SAFFORD        CLEAR     66  63  90 CALM      30.13R
$$

AZZ020-021-025-026-031-271400-
SOUTHWEST ARIZONA

CITY           SKY/WX    TMP DP  RH WIND       PRES   REMARKS
YUMA           PTCLDY    83  70  64 CALM      29.91R
$$

CAZ031-033-041-043-047-048-061-271400-
SOUTHERN CALIFORNIA

CITY           SKY/WX    TMP DP  RH WIND       PRES   REMARKS
DOWNTOWN L.A.  CLEAR     66  61  84 CALM      30.01R
L.A. AIRPORT   CLEAR     68  62  81 CALM      30.02R
SAN DIEGO      PTCLDY    70  61  73 NE3       30.01R
BURBANK        CLEAR     67  47  48 CALM      30.03R
ONTARIO        CLEAR     69  57  65 CALM      30.03R
RIVERSIDE      CLEAR     68  59  73 CALM      30.03R
PALM SPRINGS   CLEAR     81  52  36 CALM      29.94R
EL CENTRO NAS  PTCLDY    81  48  31 SW10      29.90R
IMPERIAL       CLEAR     80  50  34 SW6       29.89R
BLYTHE         CLEAR     81  56  42 N3        29.91R
NEEDLES        CLEAR     79  61  53 W5        29.95R
$$

NVZ020-UTZ003-271400-
SOUTHERN NEVADA-UTAH

CITY           SKY/WX    TMP DP  RH WIND       PRES   REMARKS
LAS VEGAS      CLEAR     75  45  34 CALM      30.02R
SALT LAKE CITY CLOUDY    60  56  86 S7        30.20R
$$

NMZ009-TXZ055-271400-
NEW MEXICO-WEST TEXAS

CITY           SKY/WX    TMP DP  RH WIND       PRES   REMARKS
ALBUQUERQUE    PTCLDY    60  57  89 SW3       30.30R
EL PASO        CLOUDY    69  67  93 CALM      30.17R
$$


........................KEY........................
SKY/WX - SKY CONDITION/WEATHER
TMP    - TEMPERATURE IN FAHRENHEIT
DP     - DEW POINT IN FAHRENHEIT
RH     - RELATIVE HUMIDITY IN PERCENT
WIND   - DIRECTION AND SPEED IN MILES PER HOUR (MPH)
VRB    - VARIABLE WIND DIRECTION
PRES   - MEAN SEA LEVEL PRESSURE IN INCHES OF MERCURY
         F - FALLING PRESSURE   R - RISING PRESSURE
         S - STEADY PRESSURE
VSB    - VISIBILITY IN MILES
HX     - HEAT INDEX IN FAHRENHEIT
WCI    - WIND CHILL INDEX IN FAHRENHEIT
TC     - TEMPERATURE IN CELSIUS WHICH IS ALSO KNOWN AS
         TEMPERATURE IN CENTIGRADE
AFB    - AIR FORCE BASE
         LUKE AFB IS LUKE AIR FORCE BASE
         DAVIS-MONTHAN IS DAVIS-MONTHAN AIR FORCE BASE
NAS    - NAVAL AIR STATION
         EL CENTRO NAS IS EL CENTRO NAVAL AIR STATION
N/A    - NOT AVAILABLE


USA.gov is the U.S. government's official web portal to all federal, state and local government web resources and services.